Location: *
(29.1167°S, 130.0000°E)
Time: 05:58:01
(UTC+00:00)

Yuri Rocket - Pass Details

Date: 21 July 2019
Orbit: 568 x 1914 km, 28.2° (Epoch: 20 August)

Event Time Altitude Azimuth Distance (km) Brightness Sun altitude
Rises 09:54:00 0° 267° (W) 2,809 7.9 -15.6°
Reaches altitude 10° 09:56:14 10° 275° (W) 1,969 6.9 -16.0°
Maximum altitude 10:00:24 38° 344° (NNW) 1,046 4.4 -16.9°
Enters shadow 10:05:12 12° 50° (NE) 2,315 5.6 -17.9°
